Location: Gerlach
(40.6516°N, 119.3568°W)
Time: 03:27:20
(UTC-07:00)

Vanguard 2 Rocket - Pass Details

Date: 24 February 2024
Orbit: 555 x 3307 km, 32.9° (Epoch: 23 April)

Event Time Altitude Azimuth Distance (km) Brightness Sun altitude
Rises 21:37:55 0° 277° (W) 6,712 12.0 -43.9°
Reaches altitude 10° 21:43:40 10° 265° (W) 5,987 11.4 -44.8°
Maximum altitude 21:56:36 23° 223° (SW) 5,235 10.7 -46.8°
Enters shadow 22:03:09 19° 199° (SSW) 5,429 10.6 -47.8°
